| time (UTC) | temp C | wind direction | speed KPH | gust KPH | rain 1hr cm | rain 24hr cm | rain mn cm | humidity % | barometer mb |
| 20260506013523 | 18 | 82 | 0.0 | 1.6 | 0.00 | 0.00 | 0.00 | 55 | 1014.9 |
| 20260506012541 | 18 | 165 | 0.0 | 3.2 | 0.00 | 0.00 | 0.00 | 53 | 1014.8 |
| 20260506011518 | 19 | 175 | 0.0 | 3.2 | 0.00 | 0.00 | 0.00 | 51 | 1014.6 |
| 20260506010555 | 19 | 166 | 0.0 | 1.6 | 0.00 | 0.00 | 0.00 | 52 | 1014.2 |
| 20260506005532 | 19 | 0.0 | 0.0 | 0.00 | 0.00 | 0.00 | 52 | 1014.4 | |
| 20260506004549 | 19 | 0.0 | 1.6 | 0.00 | 0.00 | 0.00 | 52 | 1014.4 | |
| 20260506003526 | 19 | 164 | 0.0 | 1.6 | 0.00 | 0.00 | 0.00 | 52 | 1014.4 |
| 20260506002523 | 19 | 0.0 | 1.6 | 0.00 | 0.00 | 0.00 | 53 | 1014.6 | |
| 20260506001521 | 19 | 3 | 0.0 | 1.6 | 0.00 | 0.00 | 0.00 | 53 | 1014.4 |
| 20260506000518 | 20 | 0.0 | 1.6 | 0.00 | 0.00 | 0.00 | 53 | 1014.4 | |
| 20260505235555 | 20 | 154 | 0.0 | 1.6 | 0.00 | 0.00 | 0.00 | 53 | 1014.6 |
| 20260505234532 | 20 | 0.0 | 0.0 | 0.00 | 0.00 | 0.00 | 50 | 1014.6 | |
| 20260505233529 | 20 | 138 | 0.0 | 1.6 | 0.00 | 0.00 | 0.00 | 51 | 1014.5 |
| 20260505232526 | 21 | 0.0 | 1.6 | 0.00 | 0.00 | 0.00 | 49 | 1014.5 | |
| 20260505231523 | 21 | 188 | 0.0 | 1.6 | 0.00 | 0.00 | 0.00 | 47 | 1014.3 |
| 20260505230520 | 21 | 166 | 0.0 | 1.6 | 0.00 | 0.00 | 0.00 | 48 | 1014.6 |
| 20260505225517 | 21 | 0.0 | 1.6 | 0.00 | 0.00 | 0.00 | 47 | 1014.6 | |
| 20260505224535 | 21 | 0.0 | 3.2 | 0.00 | 0.00 | 0.00 | 45 | 1014.3 | |
| 20260505223532 | 21 | 0.0 | 1.6 | 0.00 | 0.00 | 0.00 | 45 | 1014.5 | |
| 20260505222529 | 22 | 0.0 | 1.6 | 0.00 | 0.00 | 0.00 | 42 | 1014.8 | |
| 20260505221527 | 22 | 325 | 0.0 | 3.2 | 0.00 | 0.00 | 0.00 | 42 | 1014.9 |
| 20260505220524 | 21 | 236 | 1.6 | 4.8 | 0.00 | 0.00 | 0.00 | 42 | 1014.9 |
| 20260505215520 | 21 | 220 | 3.2 | 6.4 | 0.00 | 0.00 | 0.00 | 41 | 1014.9 |
| 20260505214517 | 22 | 202 | 4.8 | 6.4 | 0.00 | 0.00 | 0.00 | 39 | 1014.5 |
| 20260505213535 | 22 | 188 | 4.8 | 8.0 | 0.00 | 0.00 | 0.00 | 40 | 1014.6 |
| 20260505212532 | 22 | 214 | 4.8 | 6.4 | 0.00 | 0.00 | 0.00 | 38 | 1014.6 |
| 20260505211529 | 22 | 222 | 4.8 | 8.0 | 0.00 | 0.00 | 0.00 | 38 | 1014.8 |
| 20260505210526 | 22 | 198 | 4.8 | 9.7 | 0.00 | 0.00 | 0.00 | 37 | 1014.6 |
| 20260505205523 | 22 | 201 | 3.2 | 6.4 | 0.00 | 0.00 | 0.00 | 38 | 1014.8 |
| 20260505204520 | 22 | 218 | 3.2 | 4.8 | 0.00 | 0.00 | 0.00 | 39 | 1014.9 |
| 20260505203517 | 22 | 205 | 4.8 | 9.7 | 0.00 | 0.00 | 0.00 | 37 | 1014.9 |
| 20260505202554 | 22 | 215 | 4.8 | 8.0 | 0.00 | 0.00 | 0.00 | 39 | 1014.9 |
| 20260505201531 | 22 | 202 | 4.8 | 8.0 | 0.00 | 0.00 | 0.00 | 39 | 1014.9 |
| 20260505200528 | 22 | 195 | 4.8 | 9.7 | 0.00 | 0.00 | 0.00 | 38 | 1015.0 |
| 20260505195525 | 22 | 208 | 4.8 | 6.4 | 0.00 | 0.00 | 0.00 | 38 | 1015.0 |
| 20260505194523 | 22 | 202 | 4.8 | 8.0 | 0.00 | 0.00 | 0.00 | 40 | 1015.4 |
| 20260505193520 | 22 | 219 | 4.8 | 6.4 | 0.00 | 0.00 | 0.00 | 40 | 1015.4 |
| 20260505192517 | 22 | 223 | 4.8 | 8.0 | 0.00 | 0.00 | 0.00 | 40 | 1015.6 |
| 20260505191534 | 22 | 239 | 3.2 | 8.0 | 0.00 | 0.00 | 0.00 | 39 | 1015.6 |
| 20260505190531 | 23 | 221 | 4.8 | 6.4 | 0.00 | 0.00 | 0.00 | 37 | 1015.8 |
| 20260505185528 | 22 | 212 | 6.4 | 9.7 | 0.00 | 0.00 | 0.00 | 37 | 1015.8 |
| 20260505184525 | 22 | 204 | 6.4 | 9.7 | 0.00 | 0.00 | 0.00 | 37 | 1016.0 |
| 20260505183543 | 22 | 227 | 4.8 | 8.0 | 0.00 | 0.00 | 0.00 | 38 | 1015.8 |
| 20260505182540 | 22 | 216 | 4.8 | 9.7 | 0.00 | 0.00 | 0.00 | 39 | 1015.9 |
| 20260505181516 | 22 | 222 | 3.2 | 6.4 | 0.00 | 0.00 | 0.00 | 42 | 1016.1 |
| 20260505180534 | 22 | 207 | 3.2 | 8.0 | 0.00 | 0.00 | 0.00 | 42 | 1016.4 |
| 20260505175531 | 22 | 233 | 4.8 | 6.4 | 0.00 | 0.00 | 0.00 | 42 | 1016.6 |
| 20260505174548 | 22 | 190 | 4.8 | 9.7 | 0.00 | 0.00 | 0.00 | 43 | 1016.7 |
| 20260505173525 | 21 | 188 | 4.8 | 9.7 | 0.00 | 0.00 | 0.00 | 44 | 1016.9 |
| 20260505172522 | 22 | 207 | 4.8 | 9.7 | 0.00 | 0.00 | 0.00 | 43 | 1017.0 |
| 20260505171519 | 22 | 281 | 4.8 | 8.0 | 0.00 | 0.00 | 0.00 | 42 | 1017.1 |
| 20260505170517 | 21 | 239 | 4.8 | 8.0 | 0.00 | 0.00 | 0.00 | 40 | 1017.1 |
| 20260505165534 | 21 | 202 | 4.8 | 8.0 | 0.00 | 0.00 | 0.00 | 43 | 1017.2 |
| 20260505164531 | 21 | 198 | 4.8 | 8.0 | 0.00 | 0.00 | 0.00 | 42 | 1017.1 |
| 20260505163528 | 21 | 183 | 6.4 | 12.9 | 0.00 | 0.00 | 0.00 | 41 | 1016.9 |
| 20260505162525 | 21 | 263 | 4.8 | 11.3 | 0.00 | 0.00 | 0.00 | 42 | 1017.1 |
| 20260505161522 | 21 | 229 | 4.8 | 9.7 | 0.00 | 0.00 | 0.00 | 44 | 1017.1 |
| 20260505160519 | 20 | 197 | 4.8 | 9.7 | 0.00 | 0.00 | 0.00 | 43 | 1017.1 |
| 20260505152527 | 20 | 231 | 3.2 | 6.4 | 0.00 | 0.00 | 0.00 | 57 | 1017.5 |
| 20260505151524 | 19 | 218 | 3.2 | 8.0 | 0.00 | 0.00 | 0.00 | 59 | 1017.4 |
| 20260505150542 | 18 | 226 | 3.2 | 6.4 | 0.00 | 0.00 | 0.00 | 59 | 1017.8 |
| 20260505140524 | 16 | 243 | 3.2 | 6.4 | 0.00 | 0.00 | 0.00 | 63 | 1017.5 |
| 20260505124522 | 13 | 193 | 4.8 | 8.0 | 0.00 | 0.00 | 0.00 | 70 | 1016.7 |
| 20260505123519 | 13 | 197 | 4.8 | 6.4 | 0.00 | 0.00 | 0.00 | 68 | 1016.5 |
| 20260505122536 | 13 | 196 | 1.6 | 4.8 | 0.00 | 0.00 | 0.00 | 65 | 1016.5 |
| 20260505121534 | 14 | 210 | 1.6 | 4.8 | 0.00 | 0.00 | 0.00 | 63 | 1016.5 |
| 20260505120530 | 14 | 200 | 1.6 | 4.8 | 0.00 | 0.00 | 0.00 | 60 | 1016.3 |
| 20260505115548 | 13 | 175 | 1.6 | 3.2 | 0.00 | 0.00 | 0.00 | 61 | 1016.5 |
| 20260505114525 | 13 | 260 | 0.0 | 3.2 | 0.00 | 0.00 | 0.00 | 60 | 1016.3 |
| 20260505113522 | 13 | 276 | 1.6 | 3.2 | 0.00 | 0.00 | 0.00 | 60 | 1016.0 |
| 20260505112519 | 13 | 7 | 1.6 | 4.8 | 0.00 | 0.00 | 0.00 | 60 | 1015.9 |
| 20260505111516 | 13 | 4 | 1.6 | 3.2 | 0.00 | 0.00 | 0.00 | 59 | 1015.8 |
| 20260505110533 | 13 | 29 | 1.6 | 3.2 | 0.00 | 0.00 | 0.00 | 59 | 1015.7 |
| 20260505101519 | 13 | 7 | 1.6 | 3.2 | 0.00 | 0.00 | 0.00 | 57 | 1015.4 |
| 20260505100516 | 13 | 147 | 1.6 | 3.2 | 0.00 | 0.00 | 0.00 | 58 | 1015.6 |
| 20260505095534 | 13 | 115 | 1.6 | 3.2 | 0.00 | 0.00 | 0.00 | 57 | 1015.6 |
| 20260505094530 | 13 | 141 | 1.6 | 4.8 | 0.00 | 0.00 | 0.00 | 59 | 1015.5 |
| 20260505093528 | 13 | 60 | 1.6 | 4.8 | 0.00 | 0.00 | 0.00 | 63 | 1015.7 |
| 20260505092525 | 13 | 128 | 3.2 | 4.8 | 0.00 | 0.00 | 0.00 | 58 | 1015.7 |
| 20260505091522 | 14 | 47 | 1.6 | 3.2 | 0.00 | 0.00 | 0.00 | 56 | 1015.6 |
| 20260505090519 | 14 | 131 | 1.6 | 3.2 | 0.00 | 0.00 | 0.00 | 57 | 1015.7 |
| 20260505085516 | 13 | 68 | 1.6 | 3.2 | 0.00 | 0.00 | 0.00 | 57 | 1015.7 |
| 20260505084534 | 13 | 89 | 1.6 | 4.8 | 0.00 | 0.00 | 0.00 | 57 | 1015.9 |
| 20260505083551 | 13 | 37 | 1.6 | 3.2 | 0.00 | 0.00 | 0.00 | 57 | 1015.9 |
| 20260505082528 | 13 | 69 | 1.6 | 3.2 | 0.00 | 0.00 | 0.00 | 59 | 1015.9 |
| 20260505081525 | 13 | 60 | 1.6 | 4.8 | 0.00 | 0.00 | 0.00 | 58 | 1015.8 |
| 20260505080522 | 13 | 168 | 1.6 | 4.8 | 0.00 | 0.00 | 0.00 | 58 | 1016.0 |
| 20260505075519 | 14 | 157 | 3.2 | 6.4 | 0.00 | 0.00 | 0.00 | 57 | 1015.7 |
| 20260505074516 | 13 | 165 | 1.6 | 4.8 | 0.00 | 0.00 | 0.00 | 58 | 1016.0 |
| 20260505073534 | 14 | 61 | 1.6 | 6.4 | 0.00 | 0.00 | 0.00 | 58 | 1015.8 |
| 20260505072530 | 14 | 53 | 3.2 | 4.8 | 0.00 | 0.00 | 0.00 | 56 | 1015.8 |
| 20260505071527 | 15 | 4 | 1.6 | 6.4 | 0.00 | 0.00 | 0.00 | 55 | 1015.9 |
| 20260505070524 | 15 | 345 | 1.6 | 3.2 | 0.00 | 0.00 | 0.00 | 55 | 1015.8 |
| 20260505065522 | 15 | 117 | 1.6 | 4.8 | 0.00 | 0.00 | 0.00 | 56 | 1015.9 |
| 20260505064519 | 15 | 347 | 3.2 | 4.8 | 0.00 | 0.00 | 0.00 | 59 | 1016.0 |
| 20260505063516 | 15 | 318 | 1.6 | 4.8 | 0.00 | 0.00 | 0.00 | 55 | 1016.0 |
| 20260505062533 | 15 | 22 | 1.6 | 4.8 | 0.00 | 0.00 | 0.00 | 54 | 1016.0 |
| 20260505061530 | 15 | 27 | 1.6 | 4.8 | 0.00 | 0.00 | 0.00 | 54 | 1016.0 |
| 20260505060527 | 15 | 346 | 3.2 | 6.4 | 0.00 | 0.00 | 0.00 | 56 | 1016.1 |
| 20260505055524 | 15 | 11 | 1.6 | 6.4 | 0.00 | 0.00 | 0.00 | 53 | 1016.1 |
| 20260505054602 | 15 | 355 | 3.2 | 6.4 | 0.00 | 0.00 | 0.00 | 53 | 1016.3 |
| 20260505053519 | 15 | 4 | 3.2 | 6.4 | 0.00 | 0.00 | 0.00 | 52 | 1016.4 |
| 20260505052516 | 15 | 149 | 1.6 | 4.8 | 0.00 | 0.00 | 0.00 | 53 | 1016.3 |
| 20260505051533 | 15 | 325 | 0.0 | 3.2 | 0.00 | 0.00 | 0.00 | 54 | 1016.4 |
| 20260505050530 | 15 | 1 | 4.8 | 9.7 | 0.00 | 0.00 | 0.00 | 56 | 1016.3 |
| 20260505041516 | 16 | 174 | 3.2 | 8.0 | 0.00 | 0.00 | 0.00 | 52 | 1016.1 |
| 20260505040533 | 16 | 75 | 3.2 | 8.0 | 0.00 | 0.00 | 0.00 | 52 | 1016.2 |
| 20260505035550 | 16 | 191 | 3.2 | 8.0 | 0.00 | 0.00 | 0.00 | 52 | 1016.1 |
| 20260505034527 | 16 | 167 | 3.2 | 8.0 | 0.00 | 0.00 | 0.00 | 51 | 1016.3 |
| 20260505033524 | 16 | 183 | 1.6 | 11.3 | 0.00 | 0.00 | 0.00 | 51 | 1016.3 |
| 20260505032541 | 16 | 191 | 3.2 | 8.0 | 0.00 | 0.00 | 0.00 | 52 | 1016.4 |
| 20260505031519 | 16 | 221 | 3.2 | 8.0 | 0.00 | 0.00 | 0.00 | 52 | 1016.3 |
| 20260505030516 | 16 | 208 | 1.6 | 4.8 | 0.00 | 0.00 | 0.00 | 54 | 1016.3 |
| 20260505025533 | 16 | 168 | 0.0 | 1.6 | 0.00 | 0.00 | 0.00 | 55 | 1016.4 |
| 20260505024530 | 16 | 2 | 0.0 | 1.6 | 0.00 | 0.00 | 0.00 | 55 | 1016.3 |
| 20260505023527 | 17 | 177 | 0.0 | 3.2 | 0.00 | 0.00 | 0.00 | 56 | 1016.3 |
| 20260505022524 | 17 | 162 | 0.0 | 3.2 | 0.00 | 0.00 | 0.00 | 54 | 1016.2 |
| 20260505021522 | 17 | 0.0 | 1.6 | 0.00 | 0.00 | 0.00 | 54 | 1016.1 | |
| 20260505020539 | 17 | 0.0 | 1.6 | 0.00 | 0.00 | 0.00 | 55 | 1016.1 | |
| 20260505015516 | 17 | 0.0 | 1.6 | 0.00 | 0.00 | 0.00 | 55 | 1015.9 | |
| 20260505014533 | 17 | 158 | 0.0 | 1.6 | 0.00 | 0.00 | 0.00 | 55 | 1015.8 |